Skip Page Navigation
NASA JPL Caltech
NASA Logo - Jet Propulsion Laboratory + View the NASA Portal
+ Near-Earth Object (NEO) Program
Search JPL
JPL Home Earth Solar System Stars & Galaxies Technology
JPL Solar System Dynamics
BODIES ORBITS EPHEMERIDES TOOLS PHYSICAL DATA DISCOVERY FAQ SITE MAP
JPL Small-Body Database Browser
Search: [ help ]  
10712 Malashchuk (1982 UE6)
Classification: Main-belt Asteroid          SPK-ID: 2010712
Ephemeris | Orbit Diagram | Orbital Elements | Physical Parameters | Discovery Circumstances ]

[ show orbit diagram ]
Orbital Elements at Epoch 2456400.5 (2013-Apr-18.0) TDB
Reference: JPL 1 (heliocentric ecliptic J2000)
 Element Value Uncertainty (1-sigma)   Units 
e .1708446027884749 4.9187e-08  
a 2.393081007816549 1.441e-08 AU
q 1.984236033595487 1.1784e-07 AU
i 2.175744447852934 6.2321e-06 deg
node 22.82505380303359 0.0001484 deg
peri 62.52494276570581 0.00014963 deg
M 48.47813542855317 1.9143e-05 deg
tp 2456218.413422139314
(2012-Oct-17.91342214)
7.1624e-05 JED
period 1352.180059120799
3.70
1.2213e-05
3.344e-08
d
yr
n .2662367319882499 2.4047e-09 deg/d
Q 2.80192598203761 1.6872e-08 AU
  Orbit Determination Parameters
   # obs. used (total)      944  
   data-arc span      11143 days (30.51 yr)  
   first obs. used      1982-10-20  
   last obs. used      2013-04-23  
   planetary ephem.      DE405  
   SB-pert. ephem.      SB405-CPV-2  
   condition code      0  
   fit RMS      .53369  
   data source      ORB  
   producer      Otto Matic  
   solution date      2013-Apr-29 13:41:19  

Additional Information
 Earth MOID = 1.00083 AU 
 T_jup = 3.510 
[ show covariance matrix ]

Ephemeris | Orbit Diagram | Orbital Elements | Physical Parameters | Discovery Circumstances ]

Physical Parameter Table
Parameter Symbol Value Units Sigma Reference Notes
absolute magnitude H 14.2 mag n/a PDS3 (MPC 34747)  

10712 Malashchuk           Discovered 1982 Oct. 20 by L. G. Karachkina at the Crimean Astrophysical Observatory.
Valentina Mikhailovna Malashchuk (b. 1947) is accountant general of the Crimean Astrophysical Observatory.
NOTE: some special characters may not display properly (any characters within {} are an attempt to place the proper accent above a character)
Reference: 19991123/MPCPages.arcLast Updated: 2010-06-11

Alternate Designations
 1982 UE6 = 1991 DY1 = 1993 TN21 
Ephemeris | Orbit Diagram | Orbital Elements | Physical Parameters | Discovery Circumstances ]
ABOUT SSD CREDITS/AWARDS PRIVACY/COPYRIGHT GLOSSARY LINKS
FirstGov 2013-May-26 06:27 UT
(server date/time)  
NASA Home Page
Site Manager:   Donald K. Yeomans
Webmaster  Alan B. Chamberlin